STARLINK-37094, 68241

Orbit data source: Space-Track

STARLINK-37094, 68241 is a payload satellite owned by SpaceX/Seattle (US) in LEO that was launched on Tue, 17 Mar 2026 UTC via an FALCON 9 launch vehicle from the Air Force Eastern Test Range (AFETR). Payload-class satellites include a variety of spacecraft equipped with specific instruments for various scientific and technological missions. These include communications satellites like Starlink; space stations such as the ISS; scientific satellites like the Hubble; Earth observation satellites from companies like Planet Labs, Umbra, and HawkEye 360; GPS; miniature CubeSats for education and research; and military/defense satellites.

Loading next visibility...
Identifier
68241, 2026-054K
Orbit
LEO
Country
Flag of USUS
Related business
Manufacturer
SpaceX/Seattle
Mission
Operational spacecraft
Bus & Motor
STARLINK V2MO, Unknown motor
Mass
575 kg wet, ~530 kg dry
Launch date (UTC)
2026-03-17 (2 months ago)
Launch vehicle
FALCON 9
Launch site
Air Force Eastern Test Range (AFETR)
Object type
Payload
Rocket body
Debris
Shape & HBR
Unknown shape, 17.7 m
Radar Cross Section
RCS unknown

Expand to show TLE details & history
Last TLE update: 7 hours ago

TLE from 7 hours ago
0 STARLINK-37094
1 68241U 26054K   26145.46161898  .00020543  00000-0  70367-3 0  9999
2 68241  53.1581 300.4798 0001454  96.4133 263.7033 15.30206036 10749
Epoch: 2026-05-25T11:04Z
TLE epoch observation values (Epoch: 2026-05-25T11:04:43.879Z)
Latitude
-0.00007°
Longitude
-108.75215°
Altitude
476.206 km
Speed
7.629 km/s
True Right ascension
20h 01m 55s
True Declination
0° 00' 00"
Sunlit
Object was in full shadow at epoch
Visualization orbit readout
Latitude
Unknown
Longitude
Unknown
Altitude
Unknown
Speed
Unknown
Apparent Right ascension
Unknown
Apparent Declination
Unknown
Sunlit
N/A
Visualization observer readout
Local Sidereal Time
03:03:47
Azimuth
Unknown
Elevation
Unknown
Doppler factor
Unknown
Orbital elements
Apogee altitude
476.45 km
Perigee altitude
474.457 km
Semi-major axis
6,853.591 km
Eccentricity
0.00015
Inclination
53.1581°
RAAN
300.4798°
Arg. of periapsis
96.4133°
True anomaly
263.68674°
Mean anomaly
263.7033°
Eccentric anomaly
263.69502°
Mean motion
3.8253 °/min
Orbital period
94.11 mins
BSTAR
0.00070367
Loading maneuver chart data...
Computing Atmospheric mass density...
Loading historical data...
Loading historical data...
Loading historical data...
Loading historical data...
Loading historical data...
Loading historical data...
Loading historical data...

Documentation

Showing up to 5 results
|